Home   Weather   Tallinn   Past weeks

Flag for Estonia Past Weather in Tallinn, Estonia — Yesterday and Last 2 Weeks

Now
34 °F

Clear.


Feels Like: 27 °F
Forecast: 33 / 49 °F
Wind: 8 mph from Southwest

Location: Tallinn

Current Time: May 1, 2017 at 1:40:43 am

Latest Report: May 1, 2017 at 12:50 am


Visibility: 10 mi

Pressure: 30.27 "Hg

Humidity: 81%

Dew Point: 28 °F

Location of TallinnLocation

Past Weather in Tallinn — Graph

°F

Tallinn Temperature Yesterday

Maximum temperature yesterday: 41 °F (at 2:20 pm)
Minimum temperature yesterday: 32 °F (at 10:50 pm)
Average temperature yesterday: 36 °F

High & Low Weather Summary for the Past Weeks

 TemperatureHumidityPressure
High48 °F (Apr 21, 3:50 pm)100% (Apr 16, 9:50 am)30.51 "Hg (Apr 16, 9:50 am)
Low21 °F (Apr 16, 3:20 am)32% (Apr 18, 6:20 pm)29.21 "Hg (Apr 22, 4:20 am)
Average35 °F77%29.86 "Hg
* Reported Apr 16 12:20 am — May 1 12:20 am, Tallinn, Weather by CustomWeather, © 2017

Note: Actual official high and low records may vary slightly from our data, if they occured in-between our weather recording intervals... More about our weather records

Advertising

Tallinn Weather History for the Previous 24 Hours

Scroll right to see more
 ConditionsComfort  
Time TempWeatherWind HumidityBarometerVisibility
12:20 am
Mon, May 1
34 °FClear.8 mph81%30.27 "Hg10 mi
11:50 pm
Sun, Apr 30
32 °FClear.8 mph80%30.27 "Hg10 mi
11:20 pm32 °FClear.7 mph80%30.24 "Hg10 mi
10:50 pm32 °FClear.6 mph80%30.24 "Hg10 mi
10:20 pm34 °FPassing clouds.7 mph75%30.24 "HgN/A
9:50 pm36 °FClear.8 mph70%30.24 "Hg10 mi
9:20 pm36 °FClear.9 mph70%30.21 "Hg10 mi
8:50 pm37 °FSunny.10 mph65%30.21 "Hg10 mi
8:20 pm37 °FSunny.12 mph70%30.21 "Hg10 mi
7:50 pm39 °FPassing clouds.16 mph65%30.21 "HgN/A
7:20 pm39 °FScattered clouds.16 mph65%30.18 "HgN/A
6:50 pm39 °FPartly sunny.17 mph70%30.18 "HgN/A
6:20 pm39 °FBroken clouds.18 mph70%30.18 "HgN/A
5:50 pm39 °FMore clouds than sun.20 mph75%30.18 "HgN/A
5:20 pm37 °FOvercast.18 mph81%30.15 "HgN/A
4:50 pm39 °FScattered showers. Partly sunny.18 mph75%30.15 "HgN/A
4:20 pm39 °FScattered showers. Partly sunny.22 mph75%30.12 "HgN/A
3:50 pm41 °FScattered showers. Partly sunny.21 mph70%30.12 "HgN/A
3:20 pm41 °FScattered showers. Partly sunny.21 mph70%30.09 "HgN/A
2:50 pm37 °FSprinkles. Partly sunny.23 mph87%30.09 "Hg6 mi
2:20 pm41 °FScattered showers. Partly sunny.22 mph76%30.07 "HgN/A
1:50 pm39 °FScattered showers. Broken clouds.17 mph81%30.07 "HgN/A
1:20 pm39 °FScattered showers. More clouds than sun.18 mph81%30.07 "HgN/A
12:50 pm39 °FPartly sunny.18 mph81%30.04 "HgN/A
12:20 pm37 °FBroken clouds.18 mph87%30.04 "HgN/A
11:50 am37 °FBroken clouds.16 mph87%30.01 "HgN/A
11:20 am37 °FMostly cloudy.14 mph87%30.01 "HgN/A
10:50 am36 °FSprinkles. Mostly cloudy.14 mph93%29.98 "HgN/A
10:20 am36 °FLight rain. Cloudy.13 mph93%29.98 "HgN/A
9:50 am36 °FLight rain. Mostly cloudy.12 mph93%29.95 "HgN/A
9:20 am34 °FDrizzle. Mostly cloudy.13 mph100%29.95 "Hg6 mi
8:50 am34 °FDrizzle. Mostly cloudy.12 mph100%29.92 "Hg6 mi
8:20 am34 °FDrizzle. Mostly cloudy.12 mph100%29.92 "Hg6 mi
7:50 am34 °FLow clouds.10 mph100%29.89 "HgN/A
7:20 am34 °FLight rain. Low clouds.9 mph100%29.89 "Hg4 mi
6:50 am34 °FLight rain. Fog.9 mph100%29.89 "Hg3 mi
6:20 am34 °FFog.9 mph100%29.86 "Hg3 mi
5:50 am34 °FLight snow. Fog.9 mph93%29.86 "Hg2 mi
5:20 am34 °FDrizzle. Low clouds.10 mph93%29.83 "Hg6 mi
4:50 am34 °FDrizzle. Low clouds.10 mph93%29.83 "Hg6 mi
4:20 am34 °FLow clouds.10 mph100%29.83 "HgN/A
3:50 am34 °FLow clouds.10 mph100%29.80 "HgN/A
3:20 am34 °FPassing clouds.10 mph100%29.80 "HgN/A
2:50 am36 °FLow clouds.8 mph100%29.80 "HgN/A
2:20 am36 °FLow clouds.7 mph100%29.80 "Hg6 mi
1:50 am36 °FDrizzle. Fog.7 mph93%29.77 "Hg3 mi
1:20 am36 °FDrizzle. Fog.7 mph100%29.77 "Hg2 mi
Weather by CustomWeather, © 2017

See weather overviewHow to use our weather pages